| time (UTC) | temp C | wind direction | speed KPH | gust KPH | rain 1hr cm | rain 24hr cm | rain mn cm | humidity % | barometer mb |
| 20260507054146 | 6 | 333 | 0.0 | 0.0 | 0.00 | 0.00 | 0.00 | 92 | 1019.1 |
| 20260507053146 | 6 | 333 | 0.0 | 0.0 | 0.00 | 0.00 | 0.00 | 91 | 1019.1 |
| 20260507052144 | 6 | 333 | 0.0 | 0.0 | 0.00 | 0.00 | 0.00 | 92 | 1019.1 |
| 20260507051154 | 6 | 333 | 0.0 | 0.0 | 0.00 | 0.00 | 0.00 | 91 | 1019.0 |
| 20260507051144 | 6 | 333 | 0.0 | 0.0 | 0.00 | 0.00 | 0.00 | 91 | 1019.1 |
| 20260507050249 | 6 | 333 | 0.0 | 0.0 | 0.00 | 0.00 | 0.00 | 91 | 1019.0 |
| 20260507045146 | 6 | 333 | 0.0 | 0.0 | 0.00 | 0.00 | 0.00 | 91 | 1018.9 |
| 20260507044144 | 6 | 333 | 0.0 | 0.0 | 0.00 | 0.00 | 0.00 | 91 | 1018.9 |
| 20260507043154 | 7 | 333 | 0.0 | 0.0 | 0.00 | 0.00 | 0.00 | 90 | 1018.7 |
| 20260507043143 | 7 | 333 | 0.0 | 0.0 | 0.00 | 0.00 | 0.00 | 91 | 1018.7 |
| 20260507042248 | 7 | 333 | 0.0 | 0.0 | 0.00 | 0.00 | 0.00 | 90 | 1018.7 |
| 20260507041156 | 7 | 333 | 0.0 | 0.0 | 0.00 | 0.00 | 0.00 | 90 | 1018.5 |
| 20260507041144 | 7 | 333 | 0.0 | 0.0 | 0.00 | 0.00 | 0.00 | 90 | 1018.7 |
| 20260507040247 | 7 | 333 | 0.0 | 0.0 | 0.00 | 0.00 | 0.00 | 90 | 1018.5 |
| 20260507035141 | 7 | 333 | 0.0 | 0.0 | 0.00 | 0.00 | 0.00 | 89 | 1018.3 |
| 20260507034247 | 7 | 333 | 0.0 | 0.0 | 0.00 | 0.00 | 0.00 | 88 | 1018.4 |
| 20260507034153 | 8 | 333 | 0.0 | 0.0 | 0.00 | 0.00 | 0.00 | 87 | 1018.4 |
| 20260507034142 | 7 | 333 | 0.0 | 0.0 | 0.00 | 0.00 | 0.00 | 89 | 1018.3 |
| 20260507033351 | 7 | 333 | 0.0 | 0.0 | 0.00 | 0.00 | 0.00 | 88 | 1018.4 |
| 20260507032245 | 8 | 333 | 0.0 | 0.0 | 0.00 | 0.00 | 0.00 | 87 | 1018.4 |
| 20260507031140 | 8 | 333 | 0.0 | 0.0 | 0.00 | 0.00 | 0.00 | 86 | 1018.2 |
| 20260507030139 | 8 | 333 | 0.0 | 0.0 | 0.00 | 0.00 | 0.00 | 86 | 1018.0 |
| 20260507025141 | 8 | 333 | 0.0 | 0.0 | 0.00 | 0.00 | 0.00 | 84 | 1017.9 |
| 20260507024138 | 9 | 333 | 0.0 | 0.0 | 0.00 | 0.00 | 0.00 | 84 | 1017.7 |
| 20260507023138 | 9 | 333 | 0.0 | 0.0 | 0.00 | 0.00 | 0.00 | 82 | 1017.7 |
| 20260507022148 | 10 | 333 | 0.0 | 0.0 | 0.00 | 0.00 | 0.00 | 81 | 1017.3 |
| 20260507022137 | 10 | 333 | 0.0 | 0.0 | 0.00 | 0.00 | 0.00 | 82 | 1017.5 |
| 20260507021242 | 10 | 333 | 0.0 | 0.0 | 0.00 | 0.00 | 0.00 | 81 | 1017.3 |
| 20260507020138 | 11 | 333 | 0.0 | 0.0 | 0.00 | 0.00 | 0.00 | 80 | 1017.4 |
| 20260507015138 | 11 | 333 | 0.0 | 0.0 | 0.00 | 0.00 | 0.00 | 79 | 1017.3 |
| 20260507014136 | 11 | 333 | 0.0 | 0.0 | 0.00 | 0.00 | 0.00 | 77 | 1017.2 |
| 20260507013145 | 12 | 333 | 0.0 | 0.0 | 0.00 | 0.00 | 0.00 | 74 | 1017.0 |
| 20260507013135 | 12 | 333 | 0.0 | 0.0 | 0.00 | 0.00 | 0.00 | 74 | 1017.2 |
| 20260507012242 | 12 | 333 | 0.0 | 0.0 | 0.00 | 0.00 | 0.00 | 74 | 1017.0 |
| 20260507011135 | 12 | 333 | 0.0 | 0.0 | 0.00 | 0.00 | 0.00 | 74 | 1017.0 |
| 20260507010136 | 13 | 333 | 0.0 | 0.0 | 0.00 | 0.00 | 0.00 | 72 | 1017.0 |
| 20260507005136 | 13 | 295 | 0.0 | 0.0 | 0.00 | 0.00 | 0.00 | 71 | 1016.9 |
| 20260507004134 | 14 | 295 | 0.0 | 0.0 | 0.00 | 0.00 | 0.00 | 72 | 1016.8 |
| 20260507003133 | 14 | 295 | 0.0 | 0.0 | 0.00 | 0.00 | 0.00 | 74 | 1016.9 |
| 20260507002132 | 14 | 295 | 0.0 | 0.0 | 0.00 | 0.00 | 0.00 | 71 | 1016.8 |
| 20260507001130 | 14 | 295 | 0.0 | 0.0 | 0.00 | 0.00 | 0.00 | 68 | 1016.7 |
| 20260507000129 | 15 | 293 | 0.0 | 1.6 | 0.00 | 0.00 | 0.00 | 65 | 1016.7 |
| 20260506235126 | 15 | 290 | 0.0 | 1.6 | 0.00 | 0.00 | 0.00 | 65 | 1016.8 |
| 20260506234127 | 15 | 243 | 0.0 | 3.2 | 0.00 | 0.00 | 0.00 | 66 | 1016.7 |
| 20260506233127 | 15 | 8 | 0.0 | 0.0 | 0.00 | 0.00 | 0.00 | 63 | 1016.6 |
| 20260506232135 | 15 | 302 | 0.0 | 3.2 | 0.00 | 0.00 | 0.00 | 61 | 1016.5 |
| 20260506232124 | 15 | 1 | 0.0 | 1.6 | 0.00 | 0.00 | 0.00 | 63 | 1016.6 |
| 20260506231248 | 15 | 352 | 0.0 | 4.8 | 0.00 | 0.00 | 0.00 | 65 | 1016.4 |
| 20260506231229 | 15 | 302 | 0.0 | 3.2 | 0.00 | 0.00 | 0.00 | 61 | 1016.5 |
| 20260506230229 | 15 | 352 | 0.0 | 4.8 | 0.00 | 0.00 | 0.00 | 65 | 1016.4 |
| 20260506225128 | 15 | 333 | 0.0 | 4.8 | 0.00 | 0.00 | 0.00 | 64 | 1016.3 |
| 20260506225123 | 15 | 177 | 3.2 | 12.9 | 0.00 | 0.00 | 0.00 | 66 | 1016.0 |
| 20260506224225 | 15 | 177 | 3.2 | 12.9 | 0.00 | 0.00 | 0.00 | 66 | 1016.0 |
| 20260506223121 | 15 | 37 | 3.2 | 11.3 | 0.00 | 0.00 | 0.00 | 66 | 1015.9 |
| 20260506222133 | 15 | 28 | 1.6 | 9.7 | 0.00 | 0.00 | 0.00 | 69 | 1015.2 |
| 20260506222122 | 15 | 9 | 1.6 | 14.5 | 0.00 | 0.00 | 0.00 | 66 | 1015.4 |
| 20260506221227 | 15 | 28 | 1.6 | 9.7 | 0.00 | 0.00 | 0.00 | 69 | 1015.2 |
| 20260506220123 | 15 | 359 | 0.0 | 4.8 | 0.00 | 0.00 | 0.00 | 68 | 1015.6 |
| 20260506215120 | 15 | 333 | 0.0 | 3.2 | 0.00 | 0.00 | 0.00 | 70 | 1015.7 |
| 20260506214121 | 15 | 77 | 0.0 | 1.6 | 0.00 | 0.00 | 0.00 | 69 | 1015.8 |
| 20260506213119 | 15 | 345 | 1.6 | 9.7 | 0.00 | 0.00 | 0.00 | 69 | 1015.7 |
| 20260506212121 | 15 | 25 | 0.0 | 9.7 | 0.00 | 0.00 | 0.00 | 68 | 1015.9 |
| 20260506211118 | 14 | 268 | 0.0 | 1.6 | 0.00 | 0.00 | 0.00 | 70 | 1016.1 |
| 20260506210120 | 14 | 264 | 0.0 | 3.2 | 0.00 | 0.00 | 0.00 | 67 | 1016.0 |
| 20260506205120 | 14 | 0 | 0.0 | 6.4 | 0.00 | 0.00 | 0.00 | 72 | 1016.3 |
| 20260506204119 | 15 | 172 | 0.0 | 1.6 | 0.00 | 0.00 | 0.00 | 69 | 1016.5 |
| 20260506203119 | 14 | 251 | 0.0 | 1.6 | 0.00 | 0.00 | 0.00 | 69 | 1016.5 |
| 20260506202119 | 14 | 359 | 0.0 | 3.2 | 0.00 | 0.00 | 0.00 | 68 | 1016.7 |
| 20260506201120 | 14 | 60 | 0.0 | 3.2 | 0.00 | 0.00 | 0.00 | 67 | 1016.8 |
| 20260506200118 | 15 | 357 | 0.0 | 3.2 | 0.00 | 0.00 | 0.00 | 68 | 1016.7 |
| 20260506195136 | 15 | 4 | 1.6 | 8.0 | 0.00 | 0.00 | 0.00 | 68 | 1017.2 |
| 20260506195120 | 15 | 89 | 1.6 | 8.0 | 0.00 | 0.00 | 0.00 | 66 | 1017.1 |
| 20260506194224 | 15 | 4 | 1.6 | 8.0 | 0.00 | 0.00 | 0.00 | 68 | 1017.2 |
| 20260506193123 | 14 | 11 | 0.0 | 6.4 | 0.00 | 0.00 | 0.00 | 67 | 1017.3 |
| 20260506193117 | 14 | 344 | 1.6 | 9.7 | 0.00 | 0.00 | 0.00 | 69 | 1017.4 |
| 20260506192222 | 14 | 344 | 1.6 | 9.7 | 0.00 | 0.00 | 0.00 | 69 | 1017.4 |
| 20260506191127 | 13 | 32 | 1.6 | 12.9 | 0.00 | 0.00 | 0.00 | 71 | 1017.2 |
| 20260506191116 | 14 | 1 | 0.0 | 8.0 | 0.00 | 0.00 | 0.00 | 71 | 1017.4 |
| 20260506190221 | 13 | 32 | 1.6 | 12.9 | 0.00 | 0.00 | 0.00 | 71 | 1017.2 |
| 20260506185124 | 13 | 1 | 0.0 | 8.0 | 0.00 | 0.00 | 0.00 | 73 | 1017.4 |
| 20260506185114 | 13 | 52 | 0.0 | 4.8 | 0.00 | 0.00 | 0.00 | 69 | 1017.3 |
| 20260506184220 | 13 | 1 | 0.0 | 8.0 | 0.00 | 0.00 | 0.00 | 73 | 1017.4 |
| 20260506183123 | 13 | 4 | 3.2 | 11.3 | 0.00 | 0.00 | 0.00 | 71 | 1017.7 |
| 20260506183114 | 12 | 338 | 1.6 | 12.9 | 0.00 | 0.00 | 0.00 | 71 | 1017.5 |
| 20260506182239 | 13 | 127 | 0.0 | 4.8 | 0.00 | 0.00 | 0.00 | 70 | 1018.1 |
| 20260506182218 | 13 | 4 | 3.2 | 11.3 | 0.00 | 0.00 | 0.00 | 71 | 1017.7 |
| 20260506181216 | 13 | 127 | 0.0 | 4.8 | 0.00 | 0.00 | 0.00 | 70 | 1018.1 |
| 20260506180114 | 12 | 62 | 1.6 | 11.3 | 0.00 | 0.00 | 0.00 | 72 | 1018.2 |
| 20260506175114 | 12 | 8 | 0.0 | 1.6 | 0.00 | 0.00 | 0.00 | 71 | 1018.7 |
| 20260506174112 | 12 | 337 | 0.0 | 1.6 | 0.00 | 0.00 | 0.00 | 72 | 1018.9 |
| 20260506173112 | 12 | 136 | 0.0 | 6.4 | 0.00 | 0.00 | 0.00 | 77 | 1019.0 |
| 20260506172112 | 11 | 2 | 0.0 | 1.6 | 0.00 | 0.00 | 0.00 | 76 | 1019.3 |
| 20260506171108 | 11 | 1 | 4.8 | 11.3 | 0.00 | 0.00 | 0.00 | 75 | 1019.2 |
| 20260506170109 | 11 | 345 | 3.2 | 11.3 | 0.00 | 0.00 | 0.00 | 76 | 1019.0 |
| 20260506165107 | 11 | 1 | 1.6 | 12.9 | 0.00 | 0.00 | 0.00 | 77 | 1018.8 |
| 20260506164107 | 11 | 1 | 1.6 | 11.3 | 0.00 | 0.00 | 0.00 | 79 | 1018.5 |
| 20260506163108 | 10 | 82 | 0.0 | 1.6 | 0.00 | 0.00 | 0.00 | 78 | 1018.4 |
| 20260506162106 | 10 | 89 | 0.0 | 1.6 | 0.00 | 0.00 | 0.00 | 79 | 1018.0 |
| 20260506161107 | 10 | 196 | 0.0 | 6.4 | 0.00 | 0.00 | 0.00 | 77 | 1017.9 |
| 20260506160104 | 11 | 82 | 0.0 | 4.8 | 0.00 | 0.00 | 0.00 | 77 | 1017.9 |
| 20260506155102 | 11 | 348 | 0.0 | 6.4 | 0.00 | 0.00 | 0.00 | 77 | 1017.7 |
| 20260506154102 | 11 | 41 | 0.0 | 8.0 | 0.00 | 0.00 | 0.00 | 79 | 1017.2 |
| 20260506153102 | 10 | 55 | 0.0 | 4.8 | 0.00 | 0.00 | 0.00 | 79 | 1017.2 |
| 20260506152102 | 10 | 56 | 0.0 | 8.0 | 0.00 | 0.00 | 0.00 | 79 | 1017.5 |
| 20260506151101 | 10 | 22 | 1.6 | 9.7 | 0.00 | 0.00 | 0.00 | 78 | 1017.8 |
| 20260506150114 | 10 | 359 | 0.0 | 6.4 | 0.00 | 0.00 | 0.00 | 81 | 1017.3 |
| 20260506150105 | 10 | 34 | 0.0 | 14.5 | 0.00 | 0.00 | 0.00 | 79 | 1017.7 |
| 20260506145207 | 10 | 359 | 0.0 | 6.4 | 0.00 | 0.00 | 0.00 | 81 | 1017.3 |
| 20260506144103 | 10 | 359 | 0.0 | 3.2 | 0.00 | 0.00 | 0.00 | 82 | 1017.4 |
| 20260506143102 | 10 | 0 | 0.0 | 3.2 | 0.00 | 0.00 | 0.00 | 83 | 1017.3 |
| 20260506142102 | 10 | 334 | 0.0 | 1.6 | 0.00 | 0.00 | 0.00 | 83 | 1017.2 |
| 20260506141103 | 9 | 346 | 0.0 | 4.8 | 0.00 | 0.00 | 0.00 | 84 | 1017.1 |
| 20260506135103 | 8 | 100 | 0.0 | 9.7 | 0.00 | 0.00 | 0.00 | 85 | 1017.1 |
| 20260506134103 | 8 | 245 | 0.0 | 11.3 | 0.00 | 0.00 | 0.00 | 87 | 1017.4 |
| 20260506133102 | 8 | 44 | 0.0 | 1.6 | 0.00 | 0.00 | 0.00 | 87 | 1017.5 |
| 20260506132103 | 8 | 36 | 0.0 | 8.0 | 0.00 | 0.00 | 0.00 | 87 | 1017.2 |
| 20260506131102 | 8 | 1 | 0.0 | 1.6 | 0.00 | 0.00 | 0.00 | 88 | 1017.1 |
| 20260506125102 | 8 | 355 | 0.0 | 6.4 | 0.00 | 0.00 | 0.00 | 87 | 1017.0 |
| 20260506124102 | 8 | 13 | 0.0 | 3.2 | 0.00 | 0.00 | 0.00 | 87 | 1016.9 |
| 20260506123100 | 8 | 16 | 0.0 | 3.2 | 0.00 | 0.00 | 0.00 | 87 | 1017.1 |
| 20260506122205 | 8 | 44 | 0.0 | 1.6 | 0.00 | 0.00 | 0.00 | 87 | 1016.8 |
| 20260506121059 | 8 | 352 | 0.0 | 3.2 | 0.00 | 0.00 | 0.00 | 87 | 1016.4 |
| 20260506120057 | 8 | 2 | 0.0 | 1.6 | 0.00 | 0.00 | 0.00 | 86 | 1016.4 |
| 20260506115056 | 8 | 0 | 0.0 | 1.6 | 0.00 | 0.00 | 0.00 | 86 | 1016.4 |
| 20260506114105 | 8 | 35 | 1.6 | 19.3 | 0.00 | 0.00 | 0.00 | 85 | 1016.2 |
| 20260506114056 | 8 | 43 | 1.6 | 14.5 | 0.00 | 0.00 | 0.00 | 86 | 1016.3 |
| 20260506113203 | 8 | 35 | 1.6 | 19.3 | 0.00 | 0.00 | 0.00 | 85 | 1016.2 |
| 20260506112107 | 8 | 1 | 0.0 | 12.9 | 0.00 | 0.00 | 0.00 | 85 | 1016.0 |
| 20260506112057 | 8 | 4 | 3.2 | 12.9 | 0.00 | 0.00 | 0.00 | 85 | 1016.0 |
| 20260506111201 | 8 | 1 | 0.0 | 12.9 | 0.00 | 0.00 | 0.00 | 85 | 1016.0 |
| 20260506110058 | 8 | 15 | 0.0 | 1.6 | 0.00 | 0.00 | 0.00 | 86 | 1015.8 |
| 20260506105055 | 8 | 353 | 0.0 | 1.6 | 0.00 | 0.00 | 0.00 | 87 | 1015.7 |
| 20260506104051 | 8 | 349 | 0.0 | 1.6 | 0.00 | 0.00 | 0.00 | 87 | 1015.0 |
| 20260506103051 | 8 | 333 | 0.0 | 1.6 | 0.00 | 0.00 | 0.00 | 88 | 1014.6 |
| 20260506102049 | 8 | 332 | 0.0 | 1.6 | 0.00 | 0.00 | 0.00 | 87 | 1014.7 |
| 20260506101047 | 8 | 333 | 0.0 | 1.6 | 0.00 | 0.00 | 0.00 | 87 | 1014.3 |
| 20260506100048 | 8 | 8 | 0.0 | 1.6 | 0.00 | 0.00 | 0.00 | 86 | 1013.9 |
| 20260506095044 | 8 | 27 | 0.0 | 1.6 | 0.00 | 0.00 | 0.00 | 86 | 1013.8 |
| 20260506094044 | 8 | 86 | 0.0 | 1.6 | 0.00 | 0.03 | 0.00 | 86 | 1013.5 |
| 20260506093043 | 8 | 84 | 0.0 | 4.8 | 0.00 | 0.03 | 0.00 | 86 | 1013.2 |
| 20260506092045 | 8 | 181 | 0.0 | 0.0 | 0.00 | 0.05 | 0.00 | 87 | 1013.2 |
| 20260506091045 | 8 | 275 | 0.0 | 0.0 | 0.00 | 0.05 | 0.00 | 88 | 1013.4 |
| 20260506090045 | 8 | 275 | 0.0 | 3.2 | 0.00 | 0.08 | 0.00 | 88 | 1013.5 |
| 20260506085045 | 8 | 67 | 0.0 | 1.6 | 0.00 | 0.10 | 0.00 | 88 | 1013.7 |
| 20260506084053 | 8 | 356 | 0.0 | 1.6 | 0.00 | 0.10 | 0.00 | 89 | 1013.3 |
| 20260506084044 | 8 | 65 | 0.0 | 3.2 | 0.00 | 0.10 | 0.00 | 88 | 1013.5 |
| 20260506083149 | 8 | 356 | 0.0 | 1.6 | 0.00 | 0.10 | 0.00 | 89 | 1013.3 |
| 20260506082043 | 8 | 8 | 0.0 | 8.0 | 0.00 | 0.13 | 0.00 | 90 | 1013.1 |
| 20260506081043 | 8 | 238 | 0.0 | 4.8 | 0.00 | 0.38 | 0.00 | 90 | 1012.9 |
| 20260506073038 | 8 | 8 | 0.0 | 11.3 | 0.00 | 2.24 | 0.00 | 93 | 1012.7 |
| 20260506072142 | 8 | 4 | 0.0 | 6.4 | 0.00 | 2.24 | 0.00 | 93 | 1012.6 |
| 20260506071038 | 8 | 0 | 0.0 | 1.6 | 0.00 | 2.24 | 0.00 | 92 | 1012.9 |
| 20260506062031 | 8 | 44 | 1.6 | 17.7 | 0.00 | 2.49 | 0.00 | 92 | 1013.0 |
| 20260506061043 | 8 | 0 | 0.0 | 6.4 | 0.00 | 2.54 | 0.00 | 92 | 1013.3 |
| 20260506061032 | 8 | 7 | 0.0 | 6.4 | 0.00 | 2.54 | 0.00 | 92 | 1013.1 |
| 20260506060136 | 8 | 0 | 0.0 | 6.4 | 0.00 | 2.54 | 0.00 | 92 | 1013.3 |